Regional Weather Roundup
Issued by NWS

Home | Current Version | Previous Version | Graphics & Text | Print | Product List | Glossary Off
Versions: 1 2 3 4 5 6 7 8 9 10 11 12 13 14 15 16 17 18 19 20 21 22 23 24 25 26 27 28 29 30 31 32 33 34 35 36 37 38 39 40 41 42 43 44 45 46 47 48 49 50

000
ASUS43 KMKX 200000
RWRWI

WISCONSIN REGIONAL WEATHER ROUNDUP
NATIONAL WEATHER SERVICE MILWAUKEE/SULLIVAN WI
700 PM CDT TUE SEP 19 2017

NOTE: "FAIR" INDICATES FEW OR NO CLOUDS BELOW 12,000 FEET WITH NO
SIGNIFICANT WEATHER AND/OR OBSTRUCTIONS TO VISIBILITY.

WIZ001-002-006>008-014>016-023>028-200100-
NORTHWEST WISCONSIN

CITY           SKY/WX    TMP DP  RH WIND       PRES   REMARKS
SUPERIOR ARPT  CLOUDY    60  58  94 NE13G18   29.81S
ASHLAND        CLOUDY    62  60  93 NE3       29.84F
6HR MIN TEMP:  62; 6HR MAX TEMP:  78;

HAYWARD        PTCLDY    70  58  65 CALM      29.83S
6HR MIN TEMP:  70; 6HR MAX TEMP:  76;

SIREN          CLOUDY    73  61  66 SE6       29.77F
CUMBERLAND     PTCLDY    70  59  68 SE7       29.80F
RICE LAKE      PTCLDY    73  60  65 SE12      29.81F
CHETEK         CLOUDY    73  62  69 SE7       29.80F
LADYSMITH      CLEAR     73  56  56 E6        29.86F
EAU CLAIRE     NOT AVBL
MENOMONIE      CLEAR     73  63  69 E9        29.78F
NEW RICHMOND   CLOUDY    72  60  67 SE7       29.76F
OSCEOLA        CLOUDY    74  62  66 SE12G17   29.76F
$$

WIZ003>005-009-010-017-018-200100-
NORTH CENTRAL WISCONSIN

CITY           SKY/WX    TMP DP  RH WIND       PRES   REMARKS
MANITOWISH WTR CLEAR     68  58  69 SE7       29.90S
ARBOR VITAE    CLEAR     72  61  67 SE7       29.91S
WOODRUFF       CLEAR     72  61  67 SE7       29.91S
RHINELANDER    CLEAR     66  58  75 SE7       29.93S
6HR MIN TEMP:  66; 6HR MAX TEMP:  76;

EAGLE RIVER    CLEAR     67  54  63 SE6       29.92S
LAND O LAKES   CLEAR     67  57  69 SE8       29.94S
PHILLIPS       CLOUDY    71  57  62 SE6       29.87S
TOMAHAWK         N/A     68  57  68 SE3       29.91S
MEDFORD        CLEAR     69  56  63 SE7       29.88S
MERRILL        CLEAR     70  59  68 SE8       29.91F
$$

WIZ029-030-035-036-043>047-200100-
CENTRAL WISCONSIN

CITY           SKY/WX    TMP DP  RH WIND       PRES   REMARKS
WAUSAU         CLEAR     68  59  73 SE9       29.89S
6HR MIN TEMP:  68; 6HR MAX TEMP:  76;

MOSINEE        PTCLDY    68  59  73 E5        29.91S
MARSHFIELD     CLEAR     69  55  60 E6        29.87S
6HR MIN TEMP:  69; 6HR MAX TEMP:  78;

STEVENS POINT  CLEAR     70  56  63 E6        29.91S
WAUPACA        CLEAR     73  59  61 E9        29.91S
WAUTOMA        CLEAR     71  61  70 E10       29.89S
6HR MIN TEMP:  71; 6HR MAX TEMP:  79;

WISC RAPIDS    CLEAR     72  60  66 SE9       29.89S
6HR MIN TEMP:  72; 6HR MAX TEMP:  80;

CAMP DOUGLAS   NOT AVBL
$$

WIZ011>013-019>022-031-037>040-048>050-200100-
NORTHEAST WISCONSIN

CITY           SKY/WX    TMP DP  RH WIND       PRES   REMARKS
ANTIGO         CLEAR     66  59  78 SE8       29.94S
SHAWANO        CLEAR     70  57  65 E8        29.92F
OCONTO         CLEAR     67  55  65 E3        29.94S
STURGEON BAY   CLEAR     62  56  80 E5        29.96S
6HR MIN TEMP:  62; 6HR MAX TEMP:  72;

GREEN BAY      CLEAR     66  59  78 E7        29.93F
6HR MIN TEMP:  66; 6HR MAX TEMP:  77;

MANITOWOC      CLEAR     63  59  87 E6        29.94F
6HR MIN TEMP:  63; 6HR MAX TEMP:  69;

APPLETON       NOT AVBL
CLINTONVILLE   CLEAR     70  57  64 E7        29.91F
OSHKOSH        CLEAR     68  60  75 E9        29.91F
6HR MIN TEMP:  68; 6HR MAX TEMP:  75;

$$

WIZ032>034-041-042-053>061-200100-
SOUTHWEST WISCONSIN

CITY           SKY/WX    TMP DP  RH WIND       PRES   REMARKS
LA CROSSE      CLEAR     77  64  64 SE8       29.79F
6HR MIN TEMP:  77; 6HR MAX TEMP:  83;

SPARTA         CLEAR     75  62  63 SE8       29.84S
VIROQUA        CLEAR     74  64  69 SE9       29.84F
BOSCOBEL       CLEAR     78  62  57 VRB3      29.83F HX  80
6HR MIN TEMP:  78; 6HR MAX TEMP:  84;

PRAIRIE DU CHI CLEAR     77  59  53 SE9       29.81F
PLATTEVILLE    CLEAR     75  65  69 SE7       29.86F
$$

WIZ056-057-062-063-064-067-068-200100-
SOUTH CENTRAL WISCONSIN

CITY           SKY/WX    TMP DP  RH WIND       PRES   REMARKS
REEDSBURG      CLEAR     75  60  59 E3        29.86F
BARABOO/DELLS  CLEAR     75  57  53 SE3       29.87F
LONE ROCK      NOT AVBL
MINERAL POINT  CLEAR     77  64  65 SE7       29.87F
MADISON        PTCLDY    75  63  66 SE10      29.87F
6HR MIN TEMP:  75; 6HR MAX TEMP:  81;

MIDDLETON      CLEAR     76  62  62 SE10      29.87F
WATERTOWN      CLEAR     70  65  84 E10       29.89F
MONROE         CLEAR     73  61  64 SE6       29.88S
JANESVILLE     CLEAR     75  61  60 SE9       29.88S
$$

WIZ051-052-058>065-066-070>072-200100-
SOUTHEAST WISCONSIN

CITY           SKY/WX    TMP DP  RH WIND       PRES   REMARKS
MILWAUKEE      CLOUDY    67  64  90 E5        29.93S
6HR MIN TEMP:  67; 6HR MAX TEMP:  72;

WAUKESHA       CLOUDY    64  61  88 E9        29.94F
MILWAUKEE/TIMM CLOUDY    66  59  77 E5        29.94F HAZE
RACINE         CLOUDY    67  64  90 E7        29.94F FOG
6HR MIN TEMP:  67; 6HR MAX TEMP:  73;

BURLINGTON     CLEAR     68  64  86 E7        29.92S
KENOSHA        PTCLDY    67  63  87 E7        29.93S
6HR MIN TEMP:  67; 6HR MAX TEMP:  76;

FOND DU LAC    CLEAR     68  59  73 E12       29.91F
6HR MIN TEMP:  68; 6HR MAX TEMP:  79; 6HR PCP: TRACE;

SHEBOYGAN      CLEAR     63  61  93 E5        29.94S
6HR MIN TEMP:  63; 6HR MAX TEMP:  73;

WEST BEND        N/A     63  61  94 SE5       29.94S
JUNEAU         CLEAR     68  62  79 E8        29.92S
$$

LSZ147-162-200100-
LAKE SUPERIOR

STATION/POSITION TIME  TEMP    WIND        PRES    WAVE
                       AIR SEA DIR/SP/G            HT/PER
                 (UTC) (F)     (DEG/KT/KT) (MB)    (FT/S)
W MID LAKE BUOY  2250   58 55   60/ 16/ 16 1011.6F   2/ 3
DEVILS ISLAND    2300   60      80/ 16/ 19 1010.7F
SAXON HARBOR     2340   66     160/  2/  3 1010.2S
$$

LMZ867-665-643>646-200100-
LAKE MICHIGAN

STATION/POSITION TIME  TEMP    WIND        PRES    WAVE
                       AIR SEA DIR/SP/G            HT/PER
                 (UTC) (F)     (DEG/KT/KT) (MB)    (FT/S)
S GREEN BAY BUOY 2330   69 67  100/  6/  8 1013.8F
N MID LAKE BUOY  2250   65 65   50/  8/  8 1015.4F   1
NORTHPORT PIER   2340   65      60/  6/  9 1014.2F
KEWAUNEE LAKESHO 2330   63      10/  1/  2 1013.4F
SHEBOYGAN LAKESH 2300   65      60/  3/  3 1013.6F
PORT WASHINGTON  2340   67      90/  3/  5 1014.2F
ATWATER BUOY     2209   66 68   70/  4/  6 1014.1F
MILWAUKEE LAKESH 2330   66      90/  4/  5   N/A
S MID LAKE BUOY  2250   68 69   20/  6/  6 1013.8R   1/ 3
KENOSHA   LAKESH 2300   68      60/  5/  6 1013.2
$$

TC  - TEMPERATURE IN CELSIUS
VSB - VISIBILITY IN STATUTE MILES
WCI - WIND CHILL INDEX
HX  - HEAT INDEX





USA.gov is the U.S. government's official web portal to all federal, state and local government web resources and services.